This is the latest recevied weather packets stored in our database for station/object WV6L-13. If no packets are shown the sender has not sent any weather packets the latest 10 day(s).
| Time | Temp. | Humidity | Pressure | Rain* | Wind** | Luminosity | Snow |
|---|---|---|---|---|---|---|---|
| 1777748395 | 27.78° C | 13% | 927 hPa | - | - | - | - |
| 1777747494 | 28.33° C | 13% | 927.3 hPa | - | - | - | - |
| 1777746894 | 27.78° C | 13% | 927.4 hPa | - | - | - | - |
| 1777746295 | 27.78° C | 13% | 927.4 hPa | - | - | - | - |
| 1777745994 | 26.67° C | 14% | 927.6 hPa | - | - | - | - |
| 1777745394 | 27.22° C | 14% | 927.7 hPa | - | - | - | - |
| 1777744795 | 26.67° C | 14% | 927.8 hPa | - | - | - | - |
| 1777744194 | 26.67° C | 14% | 927.9 hPa | - | - | - | - |
| 1777743895 | 26.67° C | 13% | 928 hPa | - | - | - | - |
| 1777743295 | 27.22° C | 14% | 928 hPa | - | - | - | - |
| 1777742395 | 25° C | 15% | 928.2 hPa | - | - | - | - |
| 1777741794 | 25.56° C | 14% | 928.3 hPa | - | - | - | - |
| 1777741195 | 24.44° C | 15% | 928.2 hPa | - | - | - | - |
| 1777740295 | 25.56° C | 14% | 928.2 hPa | - | - | - | - |
| 1777739994 | 25° C | 14% | 928.2 hPa | - | - | - | - |
| 1777739395 | 23.89° C | 15% | 928.4 hPa | - | - | - | - |
| 1777738795 | 22.78° C | 16% | 928.3 hPa | - | - | - | - |
| 1777738194 | 23.33° C | 16% | 928.4 hPa | - | - | - | - |
| 1777737894 | 23.33° C | 16% | 928.3 hPa | - | - | - | - |
| 1777737595 | 23.33° C | 16% | 928.1 hPa | - | - | - | - |
| 1777736994 | 22.22° C | 16% | 928.2 hPa | - | - | - | - |
| 1777736694 | 21.67° C | 17% | 928.2 hPa | - | - | - | - |
| 1777736394 | 21.11° C | 17% | 928.2 hPa | - | - | - | - |
| 1777735795 | 19.44° C | 19% | 928.3 hPa | - | - | - | - |
| 1777735494 | 19.44° C | 18% | 928.2 hPa | - | - | - | - |
* Rain since midnight (hover to see other rain measurements)
** Current wind speed in m/s (hover to see current wind gust speed)